Flag for Czech Republic Weather past 2 weeks in Ostrava, Czech Republic

Now
60 °F

Scattered clouds.


Feels Like: 60 °F
Forecast: 48 / 67 °F
Wind: 1 mph from North

Location: Ostrava / Mosnov

Current Time: Aug 27, 2014 at 7:57:53 PM

Latest Report: Aug 27, 2014 at 7:00 PM


Visibility: 13 mi

Pressure: 29.96 "Hg

Humidity: 65%

Dew point: 49 °F

Location of OstravaLocation

Historic Weather in Ostrava — Graph

°F

Ostrava temperature yesterday

Maximum temperature yesterday: 60 °F (at 12:00 PM)
Minimum temperature yesterday: 53 °F (at 8:00 AM)
Average temperature yesterday: 56 °F

Past Weeks' High & Low Weather Summary

 TemperatureHumidityPressure
High74 °F (Aug 18, 3:00 PM)99% (Aug 24, 7:00 AM)30.13 "Hg (Aug 24, 7:00 AM)
Low43 °F (Aug 25, 6:00 AM)42% (Aug 15, 2:00 PM)29.62 "Hg (Aug 13, 11:00 PM)
Average59 °F81%29.94 "Hg
* Reported Aug 12 6:00 PM — Aug 27 6:00 PM, Ostrava, Weather by CustomWeather, © 2014

Note: Actual official high and low records may vary slightly from our data, if they occured in-between our weather recording intervals... More about our weather records

Advertising

Ostrava weather history for previous 24 hours

 ConditionsComfort  
Time TempWeatherWind HumidityBarometerVisibility
6:00 PM
Aug 27
62 °FScattered clouds.N/A59%29.94 "Hg12 mi
5:00 PM61 °FScattered clouds.3 mph62%29.94 "Hg9 mi
4:00 PM59 °FPartly sunny.3 mph75%29.94 "Hg7 mi
3:00 PM57 °FOvercast.5 mph78%29.93 "Hg7 mi
2:00 PM58 °FOvercast.6 mph81%29.91 "Hg7 mi
1:00 PM57 °FLight rain. Low clouds.6 mph88%29.90 "Hg6 mi
10:00 AM55 °FLight rain. Low clouds.5 mph95%29.85 "Hg2 mi
9:00 AM54 °FLight rain. Low clouds.5 mph97%29.84 "Hg1 mi
8:00 AM54 °FLight rain. Low clouds.5 mph98%29.82 "Hg2 mi
7:00 AM53 °FLight rain. Low clouds.3 mph98%29.81 "Hg2 mi
6:00 AM54 °FLight rain. Low clouds.3 mph98%29.80 "Hg2 mi
5:00 AM54 °FLight rain. Low clouds.5 mph99%29.79 "Hg2 mi
4:00 AM54 °FLight rain. Overcast.1 mph98%29.80 "Hg2 mi
3:00 AM53 °FLight rain. Low clouds.2 mph98%29.80 "Hg4 mi
2:00 AM54 °FLight rain. Low clouds.2 mph98%29.81 "Hg4 mi
1:18 AM54 °FFog.2 mph98%29.79 "Hg5 mi
12:00 AM54 °FLow clouds.N/A98%29.80 "Hg7 mi
11:00 PM
Aug 26
54 °FLow clouds.N/A98%29.80 "Hg9 mi
10:00 PM55 °FLow clouds.N/A97%29.80 "Hg9 mi
9:00 PM55 °FLight rain. Low clouds.5 mph98%29.79 "Hg4 mi
8:00 PM58 °FLight rain. Overcast.N/A95%29.75 "Hg6 mi
7:00 PM60 °FLight rain. Overcast.3 mph91%29.73 "Hg6 mi
Weather by CustomWeather, © 2014

See weather overviewHow to use our weather pages